Location: Observatorio Las Palmas
(29.0667°N, 110.9333°W)
Time: 00:31:33
(UTC-07:00)

HST - Visible Passes

Search period start: 01 September 2014 00:00
Search period end: 11 September 2014 00:00
Orbit: 547 x 551 km, 28.5° (Epoch: 31 August)

Date Brightness Start Highest point End Pass type
(mag) Time Alt. Az. Time Alt. Az. Time Alt. Az.
01 Sep 3.0 05:04:13 11° SSW 05:04:13 11° SSW 05:05:02 10° SSW visible
02 Sep 3.0 20:20:58 10° SSW 20:22:01 15° SSW 20:22:01 15° SSW visible
03 Sep 2.3 20:13:34 10° SW 20:16:00 24° S 20:16:00 24° S visible
04 Sep 1.6 20:06:18 10° SW 20:09:52 33° SSE 20:09:52 33° SSE visible
05 Sep 1.2 19:59:08 10° SW 20:03:05 42° SSE 20:03:37 40° SE visible
06 Sep 1.0 19:52:03 10° WSW 19:56:07 52° SSE 19:57:16 38° ESE visible
07 Sep 0.9 19:45:02 10° WSW 19:49:09 61° SSE 19:50:50 33° E visible
07 Sep 4.0 21:26:22 10° W 21:26:24 10° W 21:26:24 10° W visible
08 Sep 0.8 19:38:02 10° WSW 19:42:12 71° S 19:44:19 28° E visible
08 Sep 3.8 21:19:27 10° W 21:19:53 13° W 21:19:53 13° W visible
09 Sep 0.7 19:31:04 10° W 19:35:15 78° S 19:37:44 23° E visible
09 Sep 3.6 21:12:30 10° W 21:13:18 15° W 21:13:18 15° W visible
10 Sep 0.7 19:24:07 10° W 19:28:18 82° S 19:31:07 20° E visible
10 Sep 3.4 21:05:34 10° W 21:06:41 18° W 21:06:41 18° W visible
